Wind_Speed
72 72 72 72 72 72 73 74 75 76 77 78 78 78 78 77 77 77 77 76 76 75 74 74 73 73 72 72 71 71 71 71 71 72 72 72 72 72 72 72 72 72 72 72 72 72 72 72 71 71 70 70 68 67 66 65 64 63 61 60 58 57 57 57 56 52 50 51 52 54 57 58 57 57 57 57 57 56 56 56 56 55 54 54 54
75 75 74 74 74 74 74 74 74 74 74 75 75 75 76 76 77 77 77 76 76 75 75 74 73 73 72 71 70 70 70 70 70 70 70 69 69 69 69 69 69 69 69 70 70 70 70 70 69 68 68 68 66 65 64 63 62 60 59 58 58 57 57 57 56 54 52 53 54 54 55 57 57 57 58 57 57 57 56 56 56 56 56 55 55
80 79 78 77 77 77 77 77 77 77 76 76 75 75 76 76 76 77 76 76 76 76 75 75 74 73 72 71 71 70 70 70 70 69 69 68 68 67 67 67 67 67 67 67 67 68 68 67 66 66 66 66 65 64 63 62 61 60 59 59 59 59 59 59 59 58 56 56 56 56 56 57 58 58 59 58 58 58 57 57 57 57 57 56 56
81 82 81 81 81 81 81 81 81 80 80 79 78 78 78 78 78 78 77 77 77 77 77 76 76 75 74 73 72 72 71 71 70 70 69 69 68 68 67 67 66 66 65 65 65 65 66 65 65 65 65 65 65 64 64 63 62 62 61 61 61 61 61 62 61 61 60 59 59 59 59 59 59 60 60 61 60 60 59 58 58 58 58 57 56
81 82 83 83 83 82 83 83 84 84 83 83 82 82 81 81 81 81 80 80 80 79 79 79 78 78 77 76 75 74 74 74 73 72 72 71 71 70 69 69 68 67 66 65 65 65 66 65 65 66 66 66 66 66 65 65 65 64 64 64 64 63 64 64 64 64 63 62 61 62 62 62 61 62 63 63 63 62 61 60 59 59 58 57 56
76 78 81 82 83 83 84 84 85 86 86 86 86 85 85 85 85 84 84 84 83 83 83 82 82 81 80 80 79 78 78 78 77 76 76 75 74 73 72 72 71 70 69 68 68 68 68 67 67 68 68 68 67 67 67 67 67 67 67 67 66 66 66 66 66 66 66 65 65 66 65 65 65 65 65 66 65 64 63 61 60 60 59 58 56
65 68 71 74 76 78 80 81 83 83 84 85 85 86 86 87 87 87 87 87 86 86 86 85 85 85 84 84 83 83 82 82 81 81 80 79 78 77 76 75 75 74 73 72 72 71 71 70 70 70 71 70 70 69 70 70 70 71 71 70 70 70 70 69 69 69 68 68 68 69 69 69 68 68 68 68 67 65 63 61 61 61 61 60 58
63 64 66 69 71 73 74 76 77 78 79 80 81 82 83 84 85 86 86 86 86 86 86 86 87 87 87 87 86 86 86 85 84 84 84 83 82 81 80 79 79 78 77 76 75 75 74 74 73 73 74 74 73 73 73 74 74 74 74 74 74 74 73 73 72 72 72 72 72 72 72 71 71 70 69 68 67 64 61 61 62 63 62 60 57
68 68 70 71 72 73 74 75 75 75 76 76 78 79 80 81 83 83 84 84 84 84 84 84 85 85 86 86 87 87 87 87 87 86 86 85 85 84 83 83 82 81 81 80 79 78 78 77 77 76 76 76 76 77 77 77 77 77 77 77 77 77 77 76 76 75 75 75 74 74 74 73 73 72 70 68 65 63 62 62 62 62 60 58 57
70 70 71 72 72 73 73 74 74 74 73 73 74 75 76 77 79 80 81 82 83 83 83 83 84 84 84 84 85 85 86 87 87 87 88 87 87 86 86 85 85 84 83 83 82 82 81 81 80 80 79 79 79 79 79 79 79 79 79 79 79 79 79 79 79 79 78 78 77 76 76 75 74 72 70 67 65 63 63 62 61 60 59 58 57
71 71 72 73 75 75 75 74 74 73 72 71 72 73 74 75 76 77 79 80 81 82 82 82 83 83 83 83 83 83 84 84 85 86 88 88 88 88 88 87 87 86 86 85 84 84 84 83 83 82 82 82 82 82 82 82 82 82 82 82 82 82 82 82 82 81 81 80 78 78 77 77 74 72 69 67 65 63 63 62 61 60 59 57 55
69 71 73 73 72 74 74 75 77 77 76 76 75 75 75 75 75 77 78 79 80 81 81 82 82 82 83 83 83 83 83 83 83 85 86 87 88 89 89 89 89 88 88 87 87 86 86 85 85 84 84 84 84 84 84 84 85 85 85 85 85 85 85 84 84 83 82 81 80 79 78 76 72 70 68 66 65 64 64 63 61 59 57 55 53
75 76 78 76 73 72 72 72 75 78 80 82 82 81 79 78 78 79 80 80 81 81 82 82 83 83 83 84 84 84 83 82 82 83 84 85 86 88 89 89 89 89 89 88 88 87 87 87 87 86 85 85 85 86 86 86 86 87 87 87 87 87 86 86 84 83 81 81 80 78 76 73 70 68 66 65 65 65 63 62 59 57 55 53 51
85 84 85 84 83 82 80 79 79 79 80 81 83 85 85 84 82 82 82 83 84 84 84 84 84 85 85 85 85 85 84 84 84 85 85 85 86 87 87 88 88 88 88 88 88 87 87 87 87 86 86 85 85 85 85 85 85 86 86 86 86 86 85 84 82 81 79 78 77 75 73 70 68 67 65 65 65 64 62 60 58 56 54 52 51
89 89 89 90 91 91 91 90 88 87 86 85 86 89 90 88 86 84 83 83 84 85 86 86 87 87 87 87 87 87 86 86 86 87 86 86 87 87 87 87 88 88 88 87 87 87 87 87 86 86 85 84 84 83 83 83 83 83 83 83 83 82 81 80 78 76 75 74 73 71 69 68 67 66 65 64 64 62 60 58 56 55 54 52 52
92 92 92 92 93 94 94 93 91 90 90 90 91 91 91 90 89 88 87 86 85 85 86 86 87 88 88 89 89 89 88 87 88 88 88 88 88 88 88 88 88 89 88 88 88 88 88 88 88 87 87 85 85 84 83 82 82 82 81 81 80 79 78 77 75 74 72 72 71 69 67 67 66 65 64 63 62 61 59 58 56 55 54 53 52
98 98 97 97 97 97 97 96 95 94 93 93 93 93 92 91 91 91 90 90 89 89 89 88 88 88 88 89 89 90 90 89 90 90 89 89 89 89 89 89 89 89 89 88 89 89 89 89 89 89 89 88 87 86 84 82 81 80 79 79 78 77 76 74 73 72 71 69 69 68 66 66 65 64 63 62 61 60 59 57 56 55 55 54 52
99 99 100 100 100 100 100 100 99 99 99 98 97 97 96 95 94 94 93 92 92 92 93 92 91 91 91 90 90 90 90 89 90 90 89 90 90 90 90 90 90 89 88 88 87 88 88 88 88 88 87 87 86 86 85 83 81 79 78 77 76 76 74 72 70 70 69 68 67 66 65 65 64 63 62 61 60 60 59 58 57 55 55 53 51
95 95 96 97 98 99 100 100 100 100 99 99 99 98 98 97 97 96 96 95 94 94 95 95 95 94 94 94 94 94 93 91 91 91 91 91 91 91 92 91 91 89 88 87 86 86 86 85 85 85 85 84 83 83 83 82 81 79 78 77 77 76 73 71 69 68 68 68 67 66 66 65 65 64 63 62 61 61 59 58 56 55 55 53 53
89 89 89 89 89 89 90 92 94 95 95 95 95 94 94 94 94 95 95 95 96 96 96 97 97 96 97 97 97 98 98 97 96 96 96 95 95 95 95 94 93 92 90 89 87 86 85 84 83 83 82 82 82 82 82 81 80 79 78 78 78 76 73 71 70 69 68 68 67 67 67 67 66 65 64 63 62 60 58 57 57 57 57 56 55
82 84 84 84 84 83 84 85 85 86 88 89 89 89 89 89 89 90 91 91 92 93 94 95 96 96 97 97 98 99 100 100 100 100 101 101 101 101 100 99 99 98 96 94 92 90 88 86 85 84 83 83 82 82 82 82 81 80 79 79 78 76 75 73 72 71 70 69 68 68 68 67 66 64 63 62 60 58 56 56 57 59 59 58 58
76 78 80 81 82 82 82 82 82 81 81 81 82 83 84 84 85 85 86 86 87 87 88 90 91 92 93 94 95 96 97 98 99 100 101 101 102 103 103 103 103 103 102 100 98 96 94 92 91 89 88 87 86 85 85 84 83 82 81 80 79 78 77 76 74 73 72 71 70 69 67 65 64 63 61 60 58 57 57 58 60 61 61 61 62
71 72 73 74 75 76 76 77 77 76 76 75 75 76 77 78 79 80 81 82 82 83 84 85 86 87 88 89 90 92 93 93 94 95 96 98 99 100 101 101 102 103 104 103 102 101 100 98 97 95 94 93 92 90 89 87 87 85 84 82 81 80 79 77 76 75 73 70 68 67 66 65 66 65 63 60 58 58 59 61 62 63 64 65 66
67 67 67 67 67 68 68 69 69 69 69 69 69 70 70 71 72 73 74 75 76 77 78 80 81 82 84 85 87 89 90 91 91 92 93 94 95 96 97 97 98 99 100 101 101 100 100 99 98 97 96 95 94 93 92 90 89 87 86 84 83 81 80 78 77 76 74 71 69 67 68 70 70 67 65 64 63 62 63 63 65 66 67 69 70
64 64 63 63 63 63 64 64 65 64 65 65 65 65 66 66 67 67 68 68 69 70 71 72 73 75 76 78 80 83 85 86 87 88 90 91 91 92 93 94 94 95 95 95 96 96 96 95 94 94 93 92 92 91 90 88 87 86 85 84 83 82 81 80 78 77 75 73 71 68 67 69 69 66 65 66 67 68 69 69 69 70 71 73 74
66 66 65 63 62 62 62 63 63 63 63 63 63 64 64 64 64 64 64 64 65 65 66 66 66 67 69 70 72 75 77 79 81 82 83 85 86 87 88 89 90 91 91 91 91 91 91 90 89 88 87 86 86 85 84 83 82 82 81 82 82 82 81 81 80 79 77 76 75 73 70 71 72 71 70 71 72 72 73 73 73 73 74 74 73
69 67 64 61 61 61 62 62 62 62 62 62 61 61 61 62 61 61 61 61 61 61 61 61 61 61 62 63 64 66 69 71 74 77 79 80 81 82 83 84 84 85 86 86 87 87 87 86 85 83 82 81 79 79 78 77 76 76 77 78 79 80 81 82 81 80 80 79 78 77 75 74 74 73 73 74 74 74 73 73 73 72 71 70 70
68 66 64 63 63 63 62 62 62 62 62 61 60 60 59 59 59 58 58 57 56 56 57 57 57 58 58 57 58 58 60 62 65 68 72 75 78 79 80 80 81 81 82 82 82 82 82 82 81 79 77 76 74 73 72 71 71 71 72 73 75 78 80 82 82 82 81 81 80 79 78 77 76 74 74 74 75 75 75 76 76 75 73 73 73
71 70 69 69 68 66 65 64 63 62 62 61 61 60 58 57 56 56 56 55 55 54 54 55 55 56 56 56 56 55 55 56 57 59 62 66 70 73 76 78 79 79 79 80 80 80 80 79 78 76 74 73 72 70 69 68 67 67 67 68 70 72 75 78 81 82 82 81 82 81 80 79 79 78 78 77 77 78 79 79 79 78 77 77 76
74 73 73 72 70 69 68 65 63 62 61 61 61 60 58 56 54 54 54 55 55 55 54 54 54 54 55 56 55 54 54 54 54 55 56 59 61 64 67 71 74 76 77 78 78 78 79 79 77 76 74 73 72 71 69 68 66 64 63 63 64 66 68 71 74 77 79 81 82 82 81 80 79 79 79 79 80 81 82 82 81 80 79 78 76
71 71 70 69 68 68 67 65 63 62 61 61 61 60 59 57 55 55 55 55 55 54 53 52 51 51 51 53 54 54 53 53 52 52 53 55 57 58 60 61 63 66 69 72 73 73 75 76 76 76 75 74 73 72 71 69 67 65 63 61 61 61 63 65 67 70 72 76 79 81 82 82 81 80 79 78 77 77 77 77 77 77 78 77 76
66 66 67 66 65 65 64 63 62 62 62 62 61 59 58 57 56 55 55 54 53 52 51 49 48 47 48 49 49 50 50 50 49 50 51 52 53 55 56 56 56 57 60 63 67 68 70 71 72 73 74 74 74 73 72 70 69 67 65 63 61 60 60 61 64 66 68 70 72 75 78 80 82 83 83 82 80 78 75 74 74 74 74 74 75
62 62 63 64 64 63 62 61 61 61 61 61 60 58 56 55 53 53 52 52 51 49 48 46 46 46 46 46 46 47 47 47 47 48 49 49 49 50 51 52 53 54 56 57 59 61 63 66 67 68 68 70 71 72 72 72 71 69 67 66 64 63 61 60 61 63 65 68 70 71 72 74 76 78 81 83 84 84 83 82 80 76 72 70 70
64 63 62 63 64 63 63 62 61 60 59 59 59 58 56 54 53 51 50 49 48 47 46 45 44 44 45 44 44 44 45 45 45 45 46 46 45 46 47 48 50 52 54 55 55 54 55 58 61 63 64 65 66 67 69 70 71 71 70 68 67 65 64 64 63 62 62 64 66 69 70 71 71 72 74 75 76 77 78 77 75 70 65 63 62
71 69 67 66 65 64 64 64 64 63 61 60 59 58 57 56 54 52 50 49 48 48 47 46 45 44 44 44 45 45 44 42 41 42 43 43 43 42 43 44 45 47 49 51 52 52 51 51 52 54 57 59 60 61 62 63 65 66 68 69 68 67 66 66 66 65 64 63 64 65 67 69 69 69 69 69 69 69 68 67 66 63 62 62 59
76 76 75 73 71 69 67 67 67 67 66 65 63 61 60 58 56 55 53 52 51 52 51 50 49 47 47 48 49 50 47 44 42 41 41 41 41 41 41 41 41 42 43 45 47 48 48 48 47 47 47 49 52 55 56 56 57 58 59 62 65 67 67 66 66 66 66 65 63 63 65 67 67 68 68 68 68 67 67 65 63 61 62 62 59
75 76 76 76 76 75 73 70 69 68 68 68 67 66 64 62 60 59 57 56 55 55 55 55 54 52 52 52 53 53 52 49 47 45 44 43 43 42 41 40 40 39 39 40 42 43 44 45 45 44 44 43 43 46 48 50 51 50 50 52 55 59 62 62 62 62 64 63 62 62 64 65 64 63 63 63 63 63 62 62 61 62 63 61 58
68 69 70 72 74 77 77 75 74 72 71 71 72 72 70 68 66 64 62 61 59 58 58 58 58 58 56 56 55 55 55 54 53 51 49 48 47 46 44 42 41 40 39 38 38 39 40 41 41 42 42 41 40 41 43 44 45 45 45 45 46 49 52 54 55 57 59 60 61 61 63 64 63 62 61 60 60 60 60 61 62 64 64 61 58
60 61 62 64 66 70 73 75 75 75 75 74 74 74 74 73 71 69 67 66 64 63 62 62 62 62 62 61 59 58 58 58 57 55 54 52 51 50 48 46 44 42 41 39 38 37 37 38 38 39 39 39 39 40 40 41 41 42 43 44 44 43 45 48 51 53 56 58 60 61 62 62 61 61 62 62 62 62 63 64 64 64 62 60 61
53 54 55 56 58 61 64 67 69 71 72 73 73 74 73 73 72 71 69 68 68 67 66 66 66 67 66 66 65 64 63 63 61 59 58 56 54 53 52 50 48 46 44 42 40 38 37 37 37 38 38 38 38 39 39 39 38 38 39 41 42 41 40 42 44 47 50 53 55 58 60 61 62 62 63 63 63 64 64 64 64 64 65 65 66
49 49 50 51 52 54 56 58 60 62 64 66 68 69 70 70 70 70 69 69 69 69 69 70 70 70 70 69 68 68 67 66 64 62 60 58 57 55 54 52 51 49 47 46 44 42 40 38 38 38 38 38 37 37 37 37 37 36 35 35 36 37 36 36 38 40 42 44 46 49 52 54 57 59 61 61 62 62 62 63 64 66 67 67 67
48 49 49 49 50 51 52 53 54 56 58 60 61 62 64 65 66 67 68 69 69 70 70 71 72 73 74 72 70 68 67 66 64 63 61 59 57 56 55 53 52 51 49 48 47 45 44 42 40 39 38 38 37 36 35 34 34 35 34 33 33 33 33 33 33 34 35 37 40 42 44 46 48 50 52 54 55 57 58 59 60 61 62 61 61
45 47 49 50 50 51 52 53 54 55 56 57 57 58 59 60 61 62 63 64 65 66 67 68 70 71 72 71 69 67 65 63 62 61 60 59 57 55 54 53 53 51 50 49 48 47 47 45 44 42 41 39 38 37 36 34 33 32 33 33 32 32 31 30 30 30 30 31 33 35 37 40 42 44 46 48 49 50 52 53 54 54 54 54 53
42 44 45 47 48 50 51 52 53 54 54 55 56 57 58 58 58 58 59 59 59 60 61 61 62 64 65 66 65 63 61 60 59 58 58 57 57 55 54 54 53 52 51 50 49 48 48 47 46 45 44 42 41 40 38 36 34 33 32 32 32 32 31 30 29 29 29 29 30 31 32 34 35 37 39 41 42 43 44 45 46 46 46 46 45
43 43 44 44 45 47 48 49 50 51 52 53 54 55 56 56 57 57 57 57 57 57 57 57 57 58 58 58 58 58 57 56 56 55 55 55 55 55 55 54 54 53 52 52 51 49 48 48 47 46 45 44 43 42 40 38 37 35 33 32 32 32 32 32 31 30 29 29 30 30 31 32 32 33 33 34 34 35 35 35 36 36 36 37 37
46 45 45 45 46 46 47 48 49 50 51 52 53 53 54 54 54 55 55 56 56 56 56 56 56 56 56 55 55 54 54 54 54 54 54 54 55 54 54 54 55 54 53 52 52 51 49 48 47 47 46 45 44 43 41 39 38 37 35 34 33 33 33 33 32 32 31 31 30 30 31 31 31 32 32 32 31 31 31 32 32 32 32 33 33
49 48 48 47 47 47 47 48 48 48 49 50 51 51 52 52 52 53 53 54 54 54 55 55 55 55 55 55 55 54 53 53 53 53 53 54 54 54 54 54 54 54 53 53 52 51 50 49 47 47 46 45 45 44 42 41 39 38 37 36 35 35 34 34 34 33 33 33 33 33 32 32 32 32 32 32 32 32 33 33 33 33 33 33 34
50 50 50 49 49 48 48 48 47 47 47 47 48 48 48 49 49 50 51 51 52 52 52 53 53 53 54 54 54 54 54 53 53 53 53 53 53 53 53 53 53 53 53 53 52 52 51 49 47 46 46 46 45 45 44 43 42 40 39 38 38 37 36 36 36 36 35 35 35 35 35 35 35 35 35 35 35 35 35 35 35 35 36 36 36
50 50 49 49 48 48 47 47 46 46 45 45 45 45 45 46 46 47 48 48 49 49 50 50 51 51 52 53 53 54 54 53 53 52 52 52 53 52 52 52 52 52 52 52 52 51 51 50 48 47 46 46 46 45 45 45 44 43 42 41 40 39 39 38 38 38 38 38 37 37 37 37 37 37 37 37 37 37 37 38 38 38 38 39 39
47 47 47 47 47 46 46 45 45 44 44 43 43 43 43 43 43 43 44 44 44 45 46 47 47 48 49 50 51 52 53 53 53 52 52 51 51 51 51 51 51 51 51 51 52 52 51 51 50 49 48 47 47 47 47 46 46 45 44 44 43 42 41 41 40 40 40 40 40 40 40 39 39 39 39 40 40 40 40 40 41 41 41 42 42
46 45 44 44 44 44 44 43 43 43 42 42 42 41 41 40 40 39 39 39 39 40 41 41 42 44 45 46 47 49 50 51 51 51 51 51 51 51 50 50 50 50 50 51 51 51 51 51 51 50 50 49 49 48 48 48 47 47 46 46 46 45 45 44 43 43 43 43 43 43 43 43 43 43 43 43 43 43 44 44 44 44 45 45 45
Wind_Direction
256 256 256 257 258 259 260 262 263 264 264 265 265 265 265 265 265 266 266 266 267 267 267 268 268 268 268 268 268 268 268 268 267 267 267 267 267 267 268 268 269 270 271 272 273 273 274 275 275 276 276 276 276 277 276 276 276 276 276 276 277 277 278 279 278 277 278 280 283 285 287 288 289 290 289 288 287 285 284 283 284 286 287 289 290
257 257 257 257 258 258 258 259 260 261 262 263 264 264 265 266 266 266 266 266 267 267 267 267 268 268 268 269 269 269 269 269 269 268 268 267 267 267 267 267 267 268 268 269 270 271 272 273 274 274 275 275 275 275 275 275 274 274 275 275 275 276 277 278 279 278 278 281 283 285 287 289 289 288 288 287 286 285 284 284 285 286 288 289 290
258 258 258 258 258 258 259 259 259 259 260 261 262 263 264 265 266 266 267 267 267 268 268 268 268 268 268 268 269 269 269 269 269 269 269 269 268 268 267 267 267 267 267 268 268 269 269 270 271 272 273 274 274 274 274 273 273 273 274 275 275 276 278 279 279 279 279 281 283 286 287 288 287 287 287 286 285 285 284 284 285 287 288 289 290
257 258 258 258 258 259 259 260 260 260 260 261 261 262 263 264 265 266 266 267 267 268 268 268 268 268 268 268 268 268 268 269 269 269 269 269 269 268 268 267 267 266 266 266 266 267 267 268 269 270 271 271 272 272 272 272 273 273 274 275 276 277 279 279 280 280 281 281 283 285 286 286 286 286 286 286 285 285 284 285 286 287 288 289 290
256 256 257 258 258 259 259 259 260 261 261 261 262 262 262 263 264 264 265 266 266 266 267 267 268 268 268 268 268 268 268 268 268 268 269 269 269 268 268 268 267 267 266 266 266 266 266 267 267 268 268 269 270 270 271 271 272 273 273 275 276 277 278 279 280 281 281 282 283 284 285 286 286 285 285 285 285 285 285 285 286 287 288 288 288
258 257 256 257 257 257 258 258 259 260 261 261 262 262 262 263 263 263 263 264 264 265 265 266 266 267 267 267 267 268 268 268 268 268 268 268 268 267 267 267 267 267 267 266 266 266 266 266 266 266 267 268 268 268 269 270 270 271 272 274 275 277 278 279 280 281 281 282 283 283 285 285 285 284 284 284 284 285 285 286 286 286 286 286 287
258 257 256 255 255 256 256 257 258 258 259 260 260 261 261 262 262 262 262 263 263 263 264 264 265 265 266 266 266 266 267 267 268 268 267 267 267 266 266 266 266 266 266 266 266 266 266 266 266 266 267 267 267 267 268 269 270 271 272 273 275 276 278 279 280 280 281 281 282 283 284 284 284 283 283 283 284 285 285 285 284 284 284 285 287
258 259 258 257 257 256 256 256 257 257 257 258 259 259 260 260 261 262 262 262 262 262 263 263 263 264 264 265 265 265 266 266 267 267 267 267 266 266 266 265 265 265 265 266 266 266 267 267 267 267 267 267 267 267 267 268 269 270 272 273 275 276 277 278 279 279 280 280 281 282 282 283 283 283 282 282 283 284 283 282 282 283 284 285 285
257 258 259 259 259 258 257 256 256 256 257 257 258 258 259 260 260 261 261 262 262 262 262 263 263 263 263 264 264 264 265 265 265 266 266 266 266 266 266 266 266 265 265 265 266 266 266 267 267 267 267 267 267 267 268 268 269 271 272 273 274 275 276 277 278 278 279 280 281 281 281 282 282 282 281 281 281 281 280 281 282 283 283 283 284
256 257 258 258 259 259 259 257 256 256 257 257 258 258 259 260 260 261 261 262 262 262 262 263 263 263 263 263 263 263 264 264 264 265 265 266 266 266 266 266 266 266 266 266 266 266 266 267 267 267 267 267 268 268 269 269 270 271 271 272 273 274 275 276 277 278 279 279 280 280 281 281 281 280 280 280 279 279 279 280 281 280 281 283 285
253 255 256 257 258 258 258 258 257 257 258 259 259 259 259 260 261 261 262 262 263 263 263 263 263 263 263 263 263 263 263 264 264 264 265 265 266 266 266 266 266 266 266 266 266 266 266 266 266 266 266 267 267 268 269 270 270 271 272 273 273 274 275 275 276 277 278 279 279 279 279 280 279 279 278 278 278 278 278 278 278 280 282 284 285
247 249 251 251 252 254 255 256 257 257 259 260 260 259 259 260 261 261 262 262 263 263 264 264 264 264 264 264 263 263 263 264 264 264 265 265 265 265 265 265 265 266 266 266 266 266 266 266 266 266 266 266 267 267 268 269 270 271 272 272 273 273 274 275 276 276 277 277 278 278 278 278 277 277 277 276 276 276 276 277 279 280 282 283 284
247 248 248 247 248 249 251 254 256 258 260 262 261 260 259 259 260 261 261 262 262 263 263 264 264 264 264 264 264 264 264 264 264 265 265 265 265 266 265 265 265 265 265 266 266 266 266 267 267 267 267 267 267 267 267 268 269 270 270 271 271 272 273 274 274 275 276 276 276 277 277 276 275 275 274 274 274 275 276 278 278 279 280 280 281
251 250 250 249 249 251 253 255 256 257 258 258 259 259 260 261 261 261 261 261 261 262 262 263 263 264 264 264 264 264 264 264 265 265 265 266 266 266 266 266 266 265 265 266 266 266 266 266 267 267 267 267 267 268 268 268 268 269 269 270 270 271 272 272 273 274 274 274 275 275 275 274 273 273 273 273 274 275 276 276 277 277 277 278 278
255 254 254 253 253 255 257 258 259 259 257 256 257 259 261 262 262 262 262 262 261 261 262 262 262 263 263 264 263 263 263 264 264 265 266 266 266 267 267 266 266 266 266 266 266 267 267 267 267 267 267 268 268 269 269 269 269 269 269 269 270 271 271 272 272 272 272 272 273 273 273 272 272 272 272 273 274 274 275 275 275 276 276 277 279
258 257 257 257 257 257 258 259 260 260 260 259 259 261 262 263 263 263 263 263 262 262 262 262 262 262 263 263 263 263 263 263 264 264 265 266 266 266 267 267 267 267 267 267 267 267 267 268 268 268 268 268 269 269 270 270 270 270 270 270 270 270 271 271 271 271 271 271 272 272 272 271 272 272 272 273 274 274 275 275 275 276 277 278 280
260 260 260 260 260 260 260 261 261 261 261 261 261 261 262 262 263 263 263 263 263 263 263 263 263 263 263 263 263 263 263 263 264 264 264 265 265 265 266 266 267 267 267 267 268 268 268 268 269 268 268 268 269 269 270 270 270 270 271 271 270 270 270 271 271 271 271 271 271 272 271 271 271 272 272 273 273 274 275 275 276 277 277 278 279
263 263 263 262 263 263 263 264 264 264 264 264 264 264 264 264 263 263 263 263 263 263 263 263 263 264 264 263 263 263 263 263 263 264 264 264 264 264 264 265 265 265 266 266 267 268 268 269 269 269 269 269 269 269 270 270 270 271 271 271 271 270 271 271 271 271 271 271 271 271 271 272 272 272 272 273 274 275 275 277 277 277 277 277 277
265 265 265 265 265 265 265 265 266 266 266 267 267 268 268 268 268 267 266 265 264 263 263 263 263 264 265 265 265 264 264 263 263 264 264 264 264 264 264 264 264 264 264 264 265 266 267 268 269 269 269 269 269 269 269 269 270 271 271 272 271 271 272 272 272 271 271 271 272 272 272 272 272 273 274 274 275 276 277 277 276 274 274 274 273
267 266 267 267 266 266 266 266 266 267 268 268 269 269 269 270 270 270 270 269 268 267 266 266 265 265 266 266 266 266 266 265 265 266 266 266 266 265 265 265 265 264 264 264 264 264 265 266 267 268 269 269 269 269 269 269 269 270 271 271 272 273 273 273 272 272 272 272 272 272 273 273 274 275 275 276 277 277 276 275 272 271 271 272 272
267 267 267 267 267 266 267 267 267 268 268 268 269 269 269 270 270 270 270 270 270 270 269 269 268 268 268 268 268 268 268 268 268 268 269 269 268 268 268 267 267 266 265 265 264 264 264 264 265 266 266 267 268 269 269 270 270 271 271 272 272 273 272 272 273 273 273 272 273 273 274 274 275 276 277 277 277 275 274 272 270 270 272 272 272
265 266 266 267 267 267 268 268 268 268 268 268 268 268 269 269 269 269 270 270 270 270 270 270 270 270 270 270 270 269 269 269 269 269 270 270 270 270 270 270 270 269 268 267 267 266 266 265 265 265 265 266 266 267 268 269 270 270 271 272 272 272 272 273 273 273 273 274 275 275 274 274 275 277 277 276 274 273 273 272 271 271 272 272 272
265 266 266 267 267 268 268 268 269 269 269 269 269 269 269 269 269 269 270 270 270 270 270 270 270 270 269 269 270 270 269 269 269 269 269 269 270 270 271 271 271 271 270 270 269 268 268 267 267 266 266 266 266 266 267 268 268 269 270 270 270 271 271 272 272 272 273 273 272 272 273 274 275 276 276 275 274 272 271 270 270 271 270 270 270
266 266 267 267 267 268 268 268 268 269 269 269 269 269 269 270 269 270 270 270 270 270 270 270 270 270 270 269 269 269 269 269 269 269 268 268 268 269 269 270 270 271 271 271 270 270 270 269 269 269 268 268 268 267 267 267 268 268 268 268 267 267 268 269 269 270 271 271 270 270 271 272 272 273 273 272 271 270 270 270 270 269 268 267 268
266 266 266 267 267 268 268 269 269 269 269 269 270 270 270 270 271 271 271 271 270 270 269 269 269 268 268 268 268 268 269 269 269 268 268 268 267 267 267 267 268 268 269 270 270 270 270 270 270 270 270 270 270 269 269 268 268 267 266 265 265 264 264 264 265 265 267 268 269 269 269 268 267 267 267 267 269 270 271 271 269 268 267 267 267
266 266 266 267 268 268 269 269 270 270 270 271 271 271 271 272 272 272 272 273 273 273 272 272 271 270 269 268 267 267 267 267 267 267 267 267 267 266 266 266 266 266 266 267 267 268 269 269 269 270 270 270 270 269 269 268 267 266 264 263 262 261 260 260 260 261 262 264 266 267 267 265 265 265 265 266 268 269 268 267 266 267 267 268 268
265 265 264 266 268 269 269 270 270 271 271 272 272 273 273 272 272 273 273 274 274 274 274 274 274 273 273 272 271 269 268 267 266 265 265 265 265 265 265 264 264 264 264 264 264 265 265 266 266 267 267 268 268 268 268 267 265 264 262 261 259 258 257 257 257 257 258 260 262 263 264 264 264 265 265 266 266 266 265 265 266 267 267 268 271
262 262 262 265 268 270 270 270 271 271 272 273 273 273 273 273 273 273 273 273 273 273 274 274 275 275 275 274 274 273 273 271 269 267 266 265 264 264 264 264 264 264 264 263 263 263 262 262 262 263 263 264 264 265 265 265 264 263 261 260 258 256 255 255 255 255 256 257 258 259 261 262 263 263 264 264 264 264 265 265 266 267 268 269 271
262 263 264 267 269 270 270 270 270 271 271 272 273 273 273 272 272 272 272 272 272 273 274 275 275 276 276 276 275 275 275 275 274 272 270 268 266 265 264 264 264 264 264 264 264 263 262 261 260 260 260 260 260 261 261 262 262 262 262 261 259 258 257 256 256 256 255 256 256 258 259 260 260 261 261 260 261 262 262 263 264 265 266 267 269
265 266 266 267 268 268 268 269 269 269 270 270 271 273 273 271 270 270 272 274 275 275 276 276 277 277 276 276 276 275 275 275 276 276 274 272 270 269 268 266 265 264 264 264 264 264 264 263 262 261 260 260 259 259 260 260 260 261 262 262 261 261 259 258 258 258 257 256 256 256 257 257 258 259 260 261 261 261 260 261 262 262 263 264 266
265 266 267 267 266 266 266 267 267 268 268 268 268 270 271 271 270 270 273 275 277 277 277 277 278 277 276 275 275 275 274 274 276 277 276 274 272 270 270 269 268 267 265 265 265 265 265 265 264 263 263 262 262 261 261 260 260 261 261 262 262 262 261 260 259 259 259 258 257 256 256 256 257 258 260 262 263 262 261 261 261 261 263 265 266
263 264 265 265 264 264 264 265 265 266 266 267 267 267 269 272 273 273 274 275 275 276 275 275 276 277 278 277 276 276 275 274 275 277 278 276 273 271 271 270 269 268 266 265 265 265 265 265 265 264 264 264 264 264 263 263 262 262 262 262 262 262 262 262 260 259 258 258 258 257 257 256 256 257 258 260 262 263 264 264 265 267 269 270 270
258 260 262 263 264 263 263 263 263 264 264 264 265 266 268 270 272 273 274 274 273 272 271 273 275 277 278 279 280 278 275 274 275 276 277 277 276 275 273 271 270 268 266 265 267 268 267 266 265 265 265 264 264 265 265 266 265 264 263 263 263 263 263 263 262 261 259 258 257 257 257 257 257 258 258 259 260 262 264 266 268 270 272 272 271
255 256 258 261 262 263 263 263 264 264 263 264 264 266 267 268 269 270 271 271 270 269 269 270 273 274 276 278 280 280 277 275 275 275 276 277 279 278 275 273 271 270 269 269 271 274 273 270 267 266 266 266 265 265 265 265 266 266 265 264 263 263 263 263 264 264 262 260 258 258 258 258 258 259 259 260 260 262 263 265 266 267 268 270 270
255 257 258 259 260 261 262 263 264 265 265 265 265 265 266 266 267 267 266 266 265 265 266 267 268 269 271 273 277 280 280 277 277 277 278 279 280 280 279 277 274 273 271 272 273 275 275 274 272 270 269 267 266 266 266 265 266 266 265 264 264 263 263 263 264 264 265 264 263 261 259 258 258 259 260 260 261 262 262 263 263 263 265 269 268
258 259 260 259 259 259 261 262 263 264 265 265 266 266 266 266 265 264 264 262 261 262 263 264 264 265 266 268 274 279 280 279 278 280 281 282 282 282 281 280 278 276 274 273 272 273 273 274 276 277 275 272 269 268 268 268 267 267 266 265 264 264 264 264 264 264 265 266 265 264 261 260 258 258 259 259 260 261 262 262 263 263 265 266 263
261 261 262 260 258 258 259 260 261 262 263 265 266 266 266 266 266 265 263 262 260 260 261 262 262 264 265 266 271 276 279 280 280 280 281 283 284 283 282 280 280 279 278 276 273 272 272 273 275 277 278 277 273 270 270 269 268 267 266 266 266 265 264 264 264 263 262 262 262 261 261 260 259 258 258 259 260 261 261 261 261 262 262 261 261
262 262 262 261 259 257 258 259 260 261 263 264 266 267 268 268 267 266 265 263 262 261 260 260 262 264 266 267 268 271 276 279 280 280 280 281 283 283 283 281 280 279 279 278 276 274 273 273 274 275 276 276 274 271 270 269 268 266 266 268 269 267 265 264 262 259 258 258 257 257 257 257 256 255 255 256 256 258 258 259 260 260 260 259 260
261 261 261 261 260 259 259 259 261 262 263 264 266 267 268 268 268 268 266 265 264 263 262 262 262 264 266 267 268 269 272 275 278 279 279 280 281 282 282 281 280 279 278 278 276 275 274 274 274 274 275 276 276 275 273 272 271 269 268 270 271 269 266 263 261 258 256 256 255 255 255 254 254 253 253 252 253 254 255 257 258 260 259 260 261
260 260 260 260 260 260 260 260 261 262 264 265 266 266 267 268 268 268 267 266 266 265 265 265 265 265 266 267 268 269 271 274 276 277 278 278 279 280 280 280 280 279 279 278 277 276 275 275 275 275 276 276 277 277 276 275 275 274 272 271 270 269 268 265 262 260 258 257 256 255 254 254 253 252 252 252 252 253 253 254 256 258 260 261 263
259 259 259 259 259 259 260 260 261 261 262 263 264 265 265 266 267 267 268 268 268 267 267 267 268 269 269 269 269 270 271 272 274 275 276 277 277 277 278 278 278 277 277 277 277 277 275 275 275 276 277 278 278 278 277 276 276 276 276 273 270 269 268 267 265 263 261 260 259 258 257 256 255 254 254 254 254 254 253 253 254 256 258 260 261
258 257 257 257 257 257 258 258 259 260 260 261 262 262 263 264 265 266 267 268 268 268 268 268 269 270 270 271 271 271 271 272 273 274 274 275 275 274 274 275 275 274 274 274 275 276 276 275 274 274 275 276 278 278 278 277 275 276 277 276 273 270 268 267 267 266 265 263 262 261 260 259 258 257 257 256 256 255 255 254 255 256 256 257 258
260 259 258 257 257 257 257 258 259 259 260 260 261 261 262 262 263 264 265 266 266 267 267 267 267 267 268 269 270 271 271 272 272 272 272 272 272 271 271 271 271 271 271 270 270 271 273 274 274 274 274 274 275 276 277 277 276 276 276 276 275 272 270 268 267 267 267 267 267 265 264 263 262 261 260 259 258 258 257 257 257 257 258 258 259
264 263 261 260 259 259 259 259 260 260 260 260 261 261 261 262 262 263 264 264 264 265 265 265 265 265 265 266 267 268 269 269 269 269 269 268 268 267 267 267 267 268 268 268 268 268 269 270 272 272 273 273 273 274 274 275 275 275 274 274 275 274 273 271 270 269 268 268 267 267 266 265 264 263 262 261 261 260 260 260 260 260 260 261 262
268 267 265 264 263 262 261 260 260 260 260 260 260 261 261 262 262 262 263 263 263 263 263 263 263 263 263 264 264 265 265 265 265 264 264 263 263 263 263 264 264 264 265 266 267 267 267 268 269 270 271 272 272 273 273 273 273 273 272 272 272 273 273 272 272 271 270 269 268 267 266 265 264 264 263 262 261 261 261 261 262 262 263 265 266
269 269 268 267 266 265 265 264 263 263 262 262 263 263 263 263 263 263 263 263 263 262 262 262 262 262 262 262 262 262 262 262 261 260 259 259 259 259 259 260 261 262 262 264 265 266 267 267 268 269 269 270 271 272 272 272 272 272 271 270 269 269 270 270 270 270 270 269 269 268 267 266 266 266 266 265 264 264 264 264 264 264 264 265 265
269 269 269 269 269 269 268 268 267 267 267 267 267 267 266 266 265 265 264 264 263 263 262 262 262 262 262 262 262 261 261 261 260 259 257 257 257 257 257 258 259 259 260 261 263 264 266 267 267 268 268 269 270 271 271 271 271 270 270 269 268 266 266 266 266 266 266 266 266 266 265 265 266 266 266 267 267 267 267 267 266 266 265 265 265
271 271 271 271 271 271 271 271 270 270 270 270 270 270 269 268 267 266 266 265 264 263 262 262 262 261 261 261 261 261 260 260 259 258 257 257 257 257 257 257 258 258 259 260 261 262 263 264 265 265 266 267 268 269 270 270 270 269 268 268 267 266 265 265 264 264 264 263 263 263 263 263 263 263 263 264 265 265 266 266 266 267 267 267 267
272 272 272 272 272 272 272 272 272 271 271 271 270 270 269 269 268 267 266 265 264 263 262 262 261 261 261 260 260 260 260 259 259 258 257 257 257 257 257 257 257 257 258 258 259 260 261 261 262 262 262 263 264 265 266 267 267 267 267 267 266 265 264 264 263 264 263 263 263 262 262 262 262 262 262 263 263 263 264 265 265 266 267 267 268
273 272 272 272 272 271 271 271 270 270 269 268 268 268 267 267 267 266 265 265 264 263 262 261 261 260 260 259 259 259 259 258 258 258 258 257 257 257 257 257 257 258 258 258 258 258 259 259 260 260 261 261 262 262 263 263 264 264 264 264 264 264 263 262 262 262 262 263 263 263 263 263 262 262 263 263 263 264 264 264 265 266 267 268 269
271 271 270 270 269 268 268 267 267 267 266 266 265 265 265 265 265 265 265 264 264 263 262 261 260 259 258 258 258 258 258 258 257 257 257 257 257 257 257 257 258 258 258 258 258 258 259 259 259 260 260 261 261 261 261 262 262 262 262 262 262 262 262 262 261 261 261 261 261 262 263 263 263 263 263 263 263 263 264 265 265 266 267 268 269
Height
5688 5689 5690 5691 5692 5693 5693 5693 5693 5693 5694 5695 5695 5696 5696 5697 5698 5699 5701 5701 5701 5702 5703 5704 5704 5705 5705 5706 5707 5707 5707 5707 5707 5707 5707 5708 5709 5708 5708 5706 5706 5706 5705 5704 5704 5702 5702 5702 5702 5702 5700 5699 5700 5699 5698 5697 5696 5695 5694 5694 5693 5692 5690 5689 5690 5695 5695 5693 5691 5689 5684 5681 5682 5682 5681 5681 5680 5679 5678 5677 5677 5675 5674 5672 5671
5678 5680 5681 5683 5684 5684 5684 5684 5684 5684 5684 5685 5685 5686 5687 5688 5688 5689 5691 5692 5692 5693 5694 5694 5695 5695 5696 5697 5697 5697 5697 5697 5697 5697 5697 5699 5699 5699 5699 5697 5697 5698 5697 5697 5697 5695 5694 5694 5694 5694 5691 5691 5691 5690 5689 5689 5687 5688 5687 5686 5686 5685 5683 5681 5682 5685 5687 5685 5683 5682 5679 5675 5674 5674 5673 5674 5673 5672 5671 5670 5669 5668 5667 5665 5663
5668 5670 5672 5674 5674 5674 5675 5675 5674 5675 5675 5675 5676 5677 5677 5678 5679 5680 5682 5682 5682 5683 5684 5685 5685 5686 5687 5688 5688 5687 5688 5688 5687 5687 5688 5688 5689 5689 5689 5688 5689 5689 5689 5689 5688 5686 5686 5686 5687 5686 5683 5683 5684 5682 5681 5681 5680 5680 5680 5678 5678 5677 5675 5674 5674 5675 5678 5678 5676 5675 5674 5670 5667 5666 5665 5666 5665 5665 5664 5663 5661 5660 5659 5658 5655
5659 5660 5662 5663 5664 5664 5665 5664 5664 5664 5665 5666 5667 5668 5668 5669 5669 5669 5671 5672 5672 5673 5674 5674 5675 5676 5677 5678 5678 5678 5678 5678 5678 5678 5678 5678 5678 5679 5679 5679 5679 5680 5680 5680 5679 5678 5677 5678 5679 5678 5675 5675 5676 5675 5674 5673 5672 5671 5671 5670 5670 5669 5667 5666 5666 5667 5668 5669 5669 5667 5666 5664 5662 5659 5657 5657 5657 5656 5656 5656 5654 5653 5651 5649 5647
5649 5651 5652 5653 5654 5655 5654 5653 5652 5653 5654 5656 5658 5658 5659 5659 5659 5659 5660 5661 5662 5662 5662 5663 5664 5665 5666 5667 5668 5669 5669 5669 5669 5669 5669 5668 5668 5669 5669 5669 5669 5670 5670 5671 5670 5669 5669 5670 5671 5669 5667 5667 5668 5668 5666 5665 5664 5663 5663 5663 5661 5661 5659 5658 5658 5658 5658 5660 5661 5659 5658 5657 5656 5652 5649 5648 5648 5648 5648 5648 5647 5646 5644 5641 5639
5638 5641 5642 5643 5644 5643 5642 5642 5643 5644 5645 5646 5647 5647 5647 5648 5648 5648 5649 5649 5651 5651 5651 5651 5652 5653 5654 5655 5656 5657 5658 5658 5659 5660 5659 5658 5658 5658 5658 5659 5659 5660 5661 5661 5661 5660 5660 5662 5662 5660 5659 5660 5661 5660 5658 5657 5656 5655 5655 5654 5653 5652 5651 5651 5650 5650 5650 5651 5651 5650 5650 5650 5648 5646 5643 5640 5639 5640 5640 5639 5639 5638 5636 5634 5632
5627 5629 5630 5631 5631 5631 5631 5633 5634 5635 5636 5636 5636 5636 5636 5636 5637 5637 5637 5638 5640 5640 5639 5640 5640 5641 5642 5644 5645 5645 5646 5647 5648 5649 5648 5648 5647 5648 5648 5648 5649 5650 5651 5651 5651 5651 5652 5652 5653 5652 5651 5652 5652 5652 5650 5649 5647 5647 5647 5646 5644 5643 5643 5643 5642 5641 5641 5642 5642 5642 5641 5641 5640 5639 5636 5632 5631 5631 5631 5630 5630 5628 5627 5626 5625
5617 5618 5618 5619 5620 5621 5622 5623 5624 5624 5624 5625 5625 5625 5625 5625 5625 5625 5625 5626 5627 5628 5628 5628 5629 5630 5631 5632 5633 5633 5634 5636 5637 5636 5636 5636 5635 5636 5637 5638 5638 5640 5640 5641 5641 5642 5642 5643 5643 5643 5643 5643 5643 5642 5641 5640 5638 5638 5639 5637 5635 5634 5634 5634 5633 5632 5632 5632 5633 5633 5632 5631 5631 5630 5628 5626 5624 5623 5622 5620 5620 5619 5618 5618 5617
5606 5607 5608 5608 5609 5611 5612 5613 5613 5613 5613 5613 5613 5613 5613 5613 5613 5614 5614 5614 5615 5616 5616 5616 5618 5619 5619 5620 5621 5621 5623 5624 5625 5624 5623 5623 5623 5624 5625 5626 5627 5628 5629 5631 5632 5632 5633 5633 5633 5633 5633 5633 5633 5632 5632 5631 5629 5629 5630 5628 5626 5625 5625 5625 5624 5624 5623 5623 5624 5624 5622 5622 5622 5620 5619 5618 5617 5615 5612 5610 5611 5611 5609 5609 5609
5596 5596 5597 5598 5599 5600 5601 5602 5602 5602 5602 5602 5602 5602 5602 5602 5603 5603 5603 5603 5603 5603 5604 5605 5606 5607 5607 5608 5609 5610 5611 5613 5613 5611 5609 5610 5610 5611 5612 5614 5615 5616 5618 5620 5621 5622 5622 5622 5623 5623 5623 5622 5623 5622 5622 5621 5619 5619 5619 5618 5616 5616 5615 5615 5615 5614 5613 5613 5614 5614 5612 5613 5613 5611 5610 5610 5608 5606 5604 5603 5602 5601 5600 5601 5601
5586 5586 5587 5588 5588 5589 5590 5591 5591 5591 5591 5592 5592 5592 5592 5592 5592 5592 5592 5592 5591 5591 5593 5594 5595 5595 5595 5597 5598 5599 5600 5601 5601 5599 5597 5597 5597 5598 5599 5601 5603 5604 5606 5608 5609 5611 5611 5611 5611 5612 5612 5612 5613 5612 5611 5610 5609 5609 5608 5607 5606 5606 5605 5605 5605 5605 5603 5603 5604 5604 5602 5604 5604 5602 5601 5601 5599 5597 5596 5595 5593 5592 5592 5593 5592
5574 5575 5576 5577 5577 5578 5580 5580 5581 5580 5580 5580 5581 5582 5582 5582 5582 5582 5581 5581 5581 5581 5582 5583 5583 5584 5583 5585 5586 5588 5589 5590 5589 5587 5586 5585 5584 5584 5586 5588 5590 5592 5593 5595 5597 5598 5598 5599 5599 5600 5601 5601 5601 5600 5600 5600 5599 5598 5597 5596 5595 5595 5595 5595 5595 5594 5593 5593 5594 5594 5594 5595 5594 5593 5592 5591 5589 5588 5587 5586 5586 5585 5584 5584 5584
5561 5563 5564 5565 5565 5566 5567 5569 5569 5569 5569 5569 5570 5570 5571 5572 5572 5571 5571 5571 5571 5571 5572 5572 5572 5573 5572 5572 5574 5576 5578 5580 5578 5575 5574 5574 5572 5571 5573 5576 5578 5580 5581 5583 5584 5585 5586 5586 5586 5587 5589 5589 5589 5589 5588 5588 5588 5586 5585 5584 5584 5584 5585 5584 5584 5584 5582 5582 5582 5584 5585 5584 5584 5584 5583 5581 5579 5578 5578 5578 5578 5578 5577 5577 5577
5549 5551 5552 5553 5553 5553 5554 5555 5557 5558 5559 5558 5558 5559 5559 5560 5560 5560 5560 5560 5561 5561 5561 5561 5561 5562 5561 5560 5562 5564 5567 5568 5565 5563 5563 5563 5561 5560 5561 5563 5565 5567 5569 5570 5571 5572 5573 5573 5573 5575 5577 5577 5576 5577 5577 5576 5575 5574 5573 5572 5573 5574 5574 5574 5574 5573 5572 5571 5571 5574 5576 5574 5573 5574 5573 5571 5570 5570 5570 5570 5570 5569 5569 5569 5569
5538 5539 5541 5542 5542 5542 5542 5543 5545 5546 5547 5547 5547 5547 5548 5548 5548 5548 5548 5549 5550 5550 5550 5550 5550 5551 5550 5549 5550 5553 5556 5556 5553 5551 5551 5551 5550 5549 5550 5552 5553 5555 5557 5558 5559 5559 5560 5560 5560 5562 5564 5565 5565 5565 5564 5563 5562 5561 5561 5561 5562 5562 5562 5563 5564 5563 5562 5561 5561 5564 5565 5564 5564 5564 5563 5562 5562 5562 5562 5562 5561 5561 5560 5561 5561
5527 5528 5529 5530 5531 5531 5532 5533 5533 5534 5535 5535 5535 5536 5536 5536 5536 5536 5537 5538 5538 5538 5539 5539 5539 5540 5539 5538 5538 5540 5544 5544 5541 5539 5540 5539 5538 5538 5539 5540 5541 5543 5545 5547 5546 5546 5547 5548 5548 5549 5551 5553 5553 5553 5552 5550 5549 5548 5549 5550 5550 5550 5551 5553 5553 5551 5551 5551 5551 5553 5555 5554 5554 5554 5553 5553 5552 5552 5552 5552 5552 5552 5552 5553 5553
5513 5515 5516 5516 5517 5518 5518 5520 5521 5522 5522 5523 5523 5524 5524 5525 5525 5524 5525 5526 5527 5527 5526 5527 5527 5528 5528 5528 5527 5527 5532 5533 5529 5527 5528 5527 5526 5527 5527 5527 5529 5531 5533 5534 5534 5533 5535 5536 5536 5536 5538 5541 5542 5540 5539 5538 5536 5536 5537 5538 5538 5539 5541 5543 5542 5540 5541 5541 5541 5543 5544 5544 5544 5544 5544 5544 5544 5544 5544 5543 5544 5545 5544 5544 5544
5499 5500 5501 5502 5503 5504 5504 5505 5506 5507 5508 5508 5509 5510 5511 5512 5512 5512 5513 5514 5515 5515 5514 5515 5516 5516 5515 5515 5515 5515 5518 5521 5518 5514 5516 5516 5513 5514 5515 5515 5516 5519 5521 5522 5522 5522 5523 5525 5524 5524 5526 5529 5529 5527 5526 5526 5524 5525 5526 5526 5525 5528 5531 5533 5531 5530 5531 5531 5531 5532 5533 5533 5534 5534 5535 5535 5535 5535 5536 5536 5536 5536 5535 5535 5536
5485 5486 5486 5488 5489 5490 5490 5490 5491 5492 5493 5494 5494 5495 5496 5497 5498 5498 5499 5500 5502 5503 5502 5502 5504 5504 5503 5502 5503 5503 5504 5508 5506 5503 5504 5504 5502 5501 5502 5502 5504 5507 5508 5508 5510 5511 5512 5514 5514 5513 5514 5516 5516 5515 5515 5514 5513 5514 5515 5513 5513 5518 5522 5522 5520 5520 5520 5520 5521 5522 5523 5524 5524 5525 5526 5526 5526 5527 5527 5527 5527 5527 5526 5526 5526
5472 5473 5474 5475 5476 5476 5477 5478 5478 5479 5480 5481 5481 5482 5483 5484 5484 5484 5484 5485 5486 5488 5489 5489 5490 5492 5491 5490 5491 5490 5489 5492 5493 5491 5490 5491 5490 5488 5489 5489 5491 5493 5494 5496 5498 5501 5502 5503 5503 5503 5502 5503 5504 5503 5503 5503 5503 5504 5504 5502 5504 5509 5511 5510 5509 5510 5510 5510 5511 5512 5512 5514 5515 5516 5517 5517 5517 5518 5518 5518 5518 5517 5516 5517 5516
5458 5460 5461 5462 5463 5463 5464 5465 5466 5467 5468 5468 5469 5469 5470 5471 5471 5471 5471 5472 5473 5474 5474 5475 5476 5478 5479 5478 5478 5478 5476 5477 5480 5478 5477 5477 5476 5474 5475 5476 5477 5478 5480 5483 5486 5488 5490 5491 5492 5492 5491 5491 5492 5492 5492 5492 5493 5493 5493 5494 5496 5499 5499 5499 5500 5500 5499 5500 5501 5502 5503 5504 5505 5506 5507 5507 5508 5508 5508 5508 5507 5507 5507 5507 5507
5447 5448 5448 5449 5449 5450 5451 5451 5453 5454 5455 5456 5457 5457 5458 5458 5459 5459 5459 5459 5461 5461 5461 5462 5462 5464 5466 5465 5465 5465 5464 5463 5465 5466 5465 5464 5463 5461 5461 5463 5463 5462 5465 5469 5472 5474 5477 5478 5479 5480 5480 5480 5481 5481 5481 5481 5482 5482 5483 5485 5486 5486 5487 5489 5490 5489 5489 5490 5491 5491 5493 5494 5495 5496 5497 5497 5497 5498 5498 5498 5498 5498 5499 5500 5499
5435 5436 5436 5437 5437 5437 5438 5439 5440 5441 5442 5443 5444 5444 5445 5446 5446 5447 5447 5447 5448 5449 5448 5449 5450 5451 5453 5453 5451 5450 5450 5450 5451 5452 5452 5451 5451 5450 5449 5449 5450 5449 5450 5454 5458 5459 5461 5463 5465 5466 5466 5467 5468 5469 5469 5470 5470 5471 5473 5474 5474 5475 5476 5477 5478 5478 5479 5480 5481 5482 5483 5484 5485 5486 5487 5487 5487 5488 5489 5489 5489 5490 5491 5491 5491
5424 5425 5426 5426 5426 5427 5427 5428 5428 5429 5430 5431 5431 5432 5432 5433 5433 5434 5435 5435 5436 5436 5436 5436 5437 5438 5439 5440 5439 5437 5437 5437 5437 5437 5438 5438 5438 5438 5437 5437 5437 5436 5437 5440 5443 5444 5446 5448 5450 5451 5452 5453 5454 5455 5456 5457 5458 5459 5460 5461 5462 5463 5464 5465 5466 5467 5468 5469 5472 5473 5474 5474 5475 5477 5477 5477 5478 5479 5480 5480 5480 5481 5481 5481 5481
5414 5414 5415 5416 5416 5417 5418 5418 5418 5419 5419 5420 5421 5421 5421 5422 5422 5422 5423 5423 5423 5424 5424 5423 5424 5424 5425 5426 5426 5425 5424 5424 5424 5423 5423 5424 5424 5425 5425 5425 5425 5425 5425 5427 5429 5430 5431 5434 5435 5436 5437 5438 5439 5441 5442 5443 5444 5445 5447 5448 5449 5451 5452 5453 5454 5455 5456 5458 5460 5463 5464 5464 5465 5466 5468 5468 5469 5470 5470 5471 5470 5470 5470 5469 5469
5404 5405 5405 5406 5407 5408 5408 5408 5409 5409 5410 5410 5411 5411 5411 5411 5411 5412 5412 5412 5412 5412 5412 5412 5412 5412 5412 5413 5413 5412 5411 5411 5411 5410 5410 5410 5410 5410 5411 5411 5412 5412 5412 5414 5415 5416 5418 5420 5421 5423 5424 5424 5425 5427 5428 5429 5430 5431 5433 5434 5436 5437 5439 5440 5442 5443 5445 5447 5448 5451 5453 5453 5453 5454 5457 5458 5459 5460 5459 5459 5459 5459 5459 5458 5458
5395 5395 5396 5397 5398 5398 5399 5399 5400 5400 5400 5401 5401 5401 5401 5401 5401 5402 5402 5403 5402 5402 5401 5401 5401 5401 5401 5401 5401 5400 5399 5399 5398 5398 5398 5398 5397 5397 5397 5398 5398 5398 5399 5400 5402 5403 5404 5406 5408 5410 5411 5412 5413 5413 5414 5415 5417 5418 5419 5421 5422 5424 5425 5427 5429 5431 5433 5435 5436 5438 5440 5441 5441 5443 5445 5447 5448 5448 5448 5448 5448 5448 5448 5448 5449
5385 5386 5386 5387 5388 5389 5390 5390 5391 5391 5391 5391 5392 5392 5392 5392 5392 5392 5393 5393 5394 5393 5393 5392 5392 5391 5391 5391 5391 5390 5389 5388 5387 5387 5386 5386 5386 5385 5385 5385 5385 5386 5387 5388 5389 5390 5391 5393 5395 5397 5398 5400 5401 5401 5402 5403 5404 5405 5406 5408 5409 5410 5412 5413 5416 5418 5420 5423 5425 5426 5428 5429 5431 5432 5434 5435 5436 5437 5437 5437 5437 5437 5438 5438 5438
5375 5376 5377 5378 5379 5380 5381 5381 5382 5382 5382 5382 5382 5383 5383 5384 5384 5383 5383 5384 5384 5384 5384 5384 5383 5383 5382 5381 5382 5381 5380 5379 5377 5377 5376 5375 5375 5375 5375 5375 5375 5375 5376 5376 5377 5378 5379 5381 5382 5384 5386 5388 5389 5390 5391 5392 5392 5393 5394 5395 5397 5398 5399 5401 5403 5405 5408 5410 5412 5414 5417 5418 5419 5420 5421 5422 5423 5423 5424 5425 5426 5427 5428 5428 5428
5364 5365 5367 5368 5369 5370 5371 5372 5373 5374 5374 5374 5374 5374 5374 5375 5376 5375 5375 5375 5375 5375 5375 5375 5375 5375 5374 5373 5372 5372 5372 5371 5369 5368 5367 5366 5365 5365 5364 5364 5365 5365 5366 5366 5367 5368 5369 5370 5371 5373 5375 5376 5378 5379 5380 5381 5382 5383 5383 5384 5385 5386 5388 5390 5391 5393 5395 5397 5400 5402 5404 5406 5407 5408 5409 5409 5410 5411 5412 5413 5414 5416 5416 5417 5418
5354 5355 5356 5358 5359 5360 5361 5362 5363 5364 5365 5365 5366 5366 5365 5365 5366 5367 5367 5367 5366 5366 5366 5366 5366 5366 5365 5365 5364 5363 5363 5363 5362 5360 5359 5357 5356 5356 5355 5355 5356 5356 5357 5358 5358 5359 5359 5359 5360 5362 5363 5365 5366 5368 5369 5370 5372 5373 5374 5374 5375 5376 5377 5378 5380 5382 5383 5385 5387 5389 5391 5393 5394 5395 5396 5397 5398 5400 5401 5402 5403 5405 5406 5407 5408
5344 5345 5346 5348 5349 5351 5352 5353 5354 5354 5355 5356 5357 5357 5357 5357 5357 5358 5359 5359 5359 5358 5358 5358 5357 5357 5357 5356 5356 5355 5354 5354 5353 5352 5351 5349 5348 5347 5347 5347 5347 5347 5348 5349 5349 5349 5349 5349 5350 5351 5352 5354 5355 5356 5358 5359 5361 5363 5364 5365 5365 5367 5368 5368 5369 5371 5372 5373 5375 5376 5378 5380 5382 5384 5385 5386 5387 5389 5391 5392 5394 5395 5397 5398 5399
5334 5335 5336 5338 5339 5341 5342 5343 5344 5345 5346 5346 5347 5348 5349 5349 5349 5349 5349 5350 5351 5351 5351 5350 5350 5349 5349 5348 5348 5347 5347 5346 5345 5344 5343 5342 5341 5340 5339 5339 5339 5339 5339 5340 5340 5340 5340 5340 5341 5341 5342 5343 5344 5346 5347 5348 5350 5352 5353 5354 5355 5357 5358 5358 5359 5360 5361 5362 5363 5365 5366 5368 5370 5372 5374 5376 5377 5379 5380 5382 5383 5385 5386 5387 5388
5323 5325 5326 5328 5329 5331 5332 5333 5334 5335 5336 5337 5338 5338 5339 5340 5341 5341 5341 5341 5341 5342 5343 5343 5342 5342 5341 5341 5341 5340 5340 5339 5338 5337 5336 5335 5334 5333 5332 5332 5331 5331 5331 5332 5332 5332 5332 5331 5332 5332 5333 5334 5335 5336 5337 5338 5339 5340 5342 5343 5345 5346 5347 5348 5349 5350 5351 5352 5353 5354 5356 5357 5359 5361 5363 5365 5367 5369 5370 5372 5373 5375 5376 5377 5377
5312 5314 5316 5318 5319 5321 5322 5323 5324 5325 5326 5327 5328 5329 5330 5331 5332 5333 5333 5333 5333 5333 5334 5334 5334 5335 5334 5334 5334 5334 5333 5332 5332 5331 5330 5329 5328 5327 5326 5325 5324 5324 5324 5324 5325 5324 5324 5324 5324 5324 5324 5324 5325 5326 5327 5328 5329 5329 5330 5332 5333 5335 5337 5338 5339 5340 5341 5342 5343 5344 5346 5347 5349 5351 5353 5355 5356 5358 5359 5361 5363 5364 5365 5366 5367
5301 5302 5304 5307 5308 5310 5311 5313 5314 5315 5316 5317 5318 5319 5321 5322 5323 5324 5325 5325 5326 5325 5325 5325 5326 5326 5327 5327 5327 5326 5326 5326 5325 5324 5324 5323 5322 5321 5320 5319 5318 5317 5317 5317 5317 5317 5317 5317 5317 5316 5316 5316 5316 5317 5318 5318 5319 5319 5320 5320 5322 5323 5325 5327 5328 5330 5331 5332 5333 5334 5335 5337 5339 5341 5342 5344 5345 5347 5349 5350 5352 5353 5354 5355 5356
5289 5291 5292 5294 5297 5299 5300 5302 5303 5304 5305 5306 5307 5309 5310 5312 5313 5314 5315 5316 5317 5317 5317 5317 5317 5317 5318 5318 5318 5318 5318 5318 5318 5318 5317 5316 5316 5315 5314 5313 5312 5311 5311 5310 5310 5310 5310 5310 5310 5310 5310 5309 5309 5310 5310 5310 5310 5311 5311 5311 5312 5312 5313 5315 5317 5319 5320 5322 5323 5325 5326 5327 5328 5330 5332 5334 5335 5337 5339 5340 5342 5343 5344 5345 5345
5278 5279 5281 5283 5285 5287 5288 5290 5291 5293 5294 5295 5296 5298 5300 5301 5303 5304 5306 5307 5308 5308 5308 5309 5309 5309 5309 5309 5310 5310 5310 5310 5310 5310 5310 5309 5309 5309 5308 5307 5307 5306 5305 5304 5304 5304 5303 5303 5303 5303 5303 5303 5303 5303 5303 5303 5303 5303 5303 5303 5303 5303 5304 5305 5306 5308 5309 5311 5313 5314 5316 5317 5319 5321 5322 5324 5325 5327 5329 5330 5332 5332 5333 5334 5335
5267 5269 5270 5272 5273 5275 5276 5278 5279 5281 5282 5284 5285 5287 5288 5290 5292 5293 5295 5296 5298 5298 5299 5300 5300 5300 5300 5300 5301 5301 5302 5302 5302 5302 5302 5302 5302 5301 5301 5301 5300 5300 5299 5299 5298 5298 5297 5296 5296 5296 5296 5296 5296 5296 5296 5296 5296 5296 5296 5296 5296 5296 5296 5296 5297 5298 5299 5301 5302 5304 5306 5308 5310 5311 5313 5314 5316 5317 5319 5320 5322 5322 5323 5324 5325
5257 5259 5260 5261 5262 5264 5265 5266 5268 5269 5270 5272 5273 5275 5277 5278 5280 5282 5284 5285 5287 5288 5289 5290 5290 5291 5291 5292 5292 5293 5293 5293 5293 5294 5294 5294 5294 5294 5293 5293 5293 5293 5293 5292 5292 5292 5291 5290 5290 5290 5290 5290 5290 5290 5290 5289 5289 5289 5289 5289 5289 5289 5289 5289 5289 5290 5291 5292 5293 5295 5296 5298 5300 5301 5303 5305 5306 5307 5309 5310 5312 5313 5314 5314 5315
5249 5250 5251 5252 5253 5254 5255 5256 5257 5258 5259 5260 5262 5263 5265 5266 5268 5270 5272 5273 5275 5277 5278 5279 5280 5281 5281 5282 5283 5283 5284 5284 5284 5285 5285 5286 5286 5286 5286 5286 5286 5286 5286 5285 5285 5285 5285 5285 5284 5284 5284 5284 5284 5284 5284 5283 5283 5283 5283 5283 5283 5283 5283 5283 5283 5283 5283 5284 5285 5286 5288 5289 5290 5292 5293 5295 5296 5297 5299 5300 5302 5303 5304 5305 5305
5241 5242 5243 5243 5244 5245 5245 5246 5247 5248 5249 5250 5251 5252 5254 5255 5257 5258 5260 5261 5263 5265 5266 5268 5269 5270 5271 5271 5272 5273 5274 5275 5275 5276 5276 5277 5277 5277 5277 5278 5278 5278 5278 5278 5278 5278 5278 5278 5278 5278 5278 5278 5278 5278 5278 5278 5277 5277 5278 5278 5278 5278 5277 5277 5277 5277 5277 5278 5278 5279 5280 5281 5283 5284 5285 5286 5287 5288 5290 5291 5292 5293 5294 5295 5296
5233 5233 5234 5235 5236 5236 5237 5237 5238 5239 5239 5240 5241 5242 5243 5244 5246 5247 5249 5250 5252 5253 5255 5256 5257 5259 5260 5260 5262 5263 5264 5264 5265 5266 5267 5268 5269 5269 5269 5269 5270 5270 5270 5270 5271 5271 5271 5271 5271 5271 5271 5271 5271 5271 5272 5272 5272 5272 5272 5272 5273 5272 5272 5272 5271 5271 5272 5272 5272 5273 5274 5274 5275 5276 5277 5278 5279 5280 5281 5282 5284 5284 5286 5286 5287
5225 5226 5226 5227 5227 5228 5228 5229 5229 5230 5231 5231 5232 5233 5234 5235 5236 5237 5238 5240 5241 5242 5244 5245 5246 5247 5248 5249 5250 5252 5253 5254 5255 5256 5257 5258 5259 5260 5260 5261 5261 5262 5262 5262 5263 5263 5263 5264 5264 5264 5264 5264 5264 5265 5265 5265 5265 5265 5266 5266 5266 5267 5267 5267 5266 5266 5266 5267 5267 5267 5268 5268 5269 5269 5270 5271 5272 5273 5274 5275 5276 5276 5277 5278 5279
5218 5218 5218 5219 5219 5220 5220 5221 5221 5221 5222 5222 5223 5224 5225 5225 5226 5227 5228 5230 5231 5232 5233 5235 5236 5237 5238 5238 5240 5241 5242 5243 5244 5246 5247 5248 5249 5250 5251 5251 5252 5253 5253 5254 5254 5255 5255 5256 5256 5256 5257 5257 5257 5258 5258 5258 5258 5259 5259 5259 5260 5261 5261 5261 5261 5261 5261 5262 5262 5262 5262 5263 5263 5263 5264 5265 5265 5266 5267 5267 5268 5269 5270 5271 5271
5211 5211 5211 5211 5212 5212 5212 5213 5213 5214 5214 5214 5215 5216 5216 5217 5218 5218 5219 5220 5221 5222 5223 5225 5226 5227 5227 5228 5229 5231 5232 5233 5235 5236 5237 5238 5239 5240 5241 5242 5243 5243 5244 5245 5245 5246 5247 5247 5248 5248 5249 5249 5250 5250 5250 5251 5251 5252 5252 5253 5253 5254 5255 5255 5256 5256 5256 5256 5256 5257 5257 5257 5258 5258 5258 5259 5260 5260 5261 5261 5262 5263 5263 5264 5265
5203 5203 5203 5204 5204 5204 5205 5205 5205 5206 5206 5207 5207 5208 5208 5209 5209 5210 5210 5211 5212 5213 5214 5215 5216 5217 5218 5219 5220 5221 5222 5224 5225 5226 5227 5229 5230 5231 5232 5233 5233 5234 5235 5236 5237 5237 5238 5239 5240 5240 5241 5241 5242 5242 5243 5243 5244 5245 5246 5246 5247 5247 5248 5249 5249 5250 5250 5250 5251 5251 5251 5252 5252 5253 5253 5254 5254 5255 5255 5256 5256 5257 5258 5258 5259
5196 5196 5196 5196 5196 5196 5197 5197 5198 5198 5198 5199 5199 5199 5200 5200 5200 5201 5202 5202 5203 5204 5205 5205 5206 5207 5208 5209 5210 5212 5213 5214 5216 5217 5218 5220 5221 5222 5223 5224 5224 5225 5226 5227 5228 5229 5230 5231 5231 5232 5233 5234 5234 5235 5235 5236 5237 5237 5238 5239 5240 5241 5241 5242 5243 5243 5244 5244 5244 5245 5245 5246 5246 5247 5247 5248 5248 5249 5249 5250 5251 5251 5252 5252 5253
5188 5188 5188 5188 5188 5189 5189 5189 5190 5190 5190 5191 5191 5191 5191 5192 5192 5193 5193 5194 5194 5195 5195 5196 5197 5198 5199 5200 5201 5203 5204 5205 5207 5208 5209 5211 5212 5213 5214 5215 5216 5216 5217 5218 5219 5220 5221 5222 5223 5224 5225 5226 5226 5227 5228 5228 5229 5230 5231 5231 5232 5233 5234 5235 5235 5236 5236 5237 5238 5238 5239 5239 5239 5240 5240 5241 5241 5242 5242 5243 5244 5244 5245 5245 5246
5180 5180 5180 5180 5180 5181 5181 5181 5182 5182 5183 5183 5183 5183 5184 5184 5185 5185 5185 5185 5186 5186 5187 5187 5188 5189 5190 5191 5192 5194 5195 5197 5198 5200 5201 5202 5203 5204 5205 5206 5207 5208 5209 5210 5211 5212 5213 5214 5215 5216 5217 5218 5218 5219 5220 5221 5222 5222 5223 5224 5224 5225 5226 5227 5228 5228 5229 5230 5230 5231 5231 5232 5232 5233 5233 5234 5234 5235 5235 5236 5236 5237 5237 5238 5238
5171 5172 5172 5172 5172 5173 5173 5173 5174 5174 5175 5175 5176 5176 5177 5177 5177 5178 5178 5178 5178 5179 5179 5180 5180 5181 5182 5183 5184 5185 5187 5188 5189 5191 5193 5194 5195 5196 5197 5198 5199 5200 5201 5201 5202 5203 5204 5205 5206 5207 5208 5209 5210 5211 5212 5213 5214 5214 5215 5216 5216 5217 5218 5219 5220 5221 5221 5222 5223 5223 5224 5224 5225 5225 5226 5226 5227 5227 5228 5228 5228 5229 5229 5229 5230